Simultaneous Nadir Overpasses (SNOs) Predictions

Prediction of SNOs between METOP-B and TERRA Satellite Orbit:

Table of predicted SNOs for the next 14.0 days since TLE Epoch: 1/19/2013
Index Date (METOP-B) Time (METOP-B) Lat,Lon (METOP-B) SZA (METOP-B ) Date (TERRA) Time (TERRA) Lat,Lon (TERRA) SZA (TERRA ) Distance(km) Time Diff (sec)
1 01/21/2013 17:41:53 81.27, -38.87 103.31 01/21/2013 17:42:07 81.26, -38.98 103.30 1.99 14
2 01/21/2013 18:32:32 -81.28, 129.08 76.64 01/21/2013 18:31:33 -81.28, 128.97 76.67 1.95 59
3 01/24/2013 13:16:16 81.28, 27.65 102.64 01/24/2013 13:16:20 81.27, 27.60 102.64 0.83 4
4 01/24/2013 14:06:55 -81.28,-164.42 77.30 01/24/2013 14:05:46 -81.29,-164.44 77.33 0.73 69
5 01/27/2013 08:00:00 -81.27, -73.68 78.12 01/27/2013 08:01:08 -81.27, -73.66 78.09 0.45 68
6 01/
